Flag for Japan Weather past 2 weeks in Nagoya, Japan

Now
70 °F

Rain showers. Fog.


Feels Like: 70 °F
Forecast: 62 / 82 °F
Wind: 15 mph from Southeast

Location: Nagoya Airport

Current Time: Jul 1, 2015 at 9:13:16 AM

Latest Report: Jul 1, 2015 at 8:30 AM


Visibility: 2 mi

Pressure: 29.33 "Hg

Humidity: 88%

Dew point: 66 °F

Location of NagoyaLocation

Historic Weather in Nagoya — Graph

°F

Nagoya temperature yesterday

Maximum temperature yesterday: 75 °F (at 11:00 AM)
Minimum temperature yesterday: 68 °F (at 9:00 PM)
Average temperature yesterday: 71 °F

Past Weeks' High & Low Weather Summary

 TemperatureHumidityPressure
High81 °F (Jun 25, 10:30 AM)94% (Jun 17, 3:30 AM)29.92 "Hg (Jun 17, 3:30 AM)
Low66 °F (Jun 18, 6:00 PM)57% (Jun 28, 10:30 AM)29.33 "Hg (Jul 1, 7:00 AM)
Average72 °F80%29.72 "Hg
* Reported Jun 16 8:00 AM — Jul 1 8:00 AM, Nagoya, Weather by CustomWeather, © 2015

Note: Actual official high and low records may vary slightly from our data, if they occured in-between our weather recording intervals... More about our weather records

Advertising

Nagoya weather history for previous 24 hours

 ConditionsComfort  
Time TempWeatherWind HumidityBarometerVisibility
8:00 AM
Wed, Jul 1
70 °FRain showers. Fog.14 mph88%29.33 "Hg2 mi
7:30 AM70 °FSprinkles. Partly sunny.15 mph88%29.33 "Hg4 mi
7:00 AM68 °FSprinkles. Fog.16 mph94%29.33 "Hg3 mi
6:30 AM68 °FSprinkles. Partly sunny.15 mph94%29.36 "Hg4 mi
6:00 AM68 °FSprinkles. Partly sunny.9 mph88%29.36 "Hg4 mi
5:30 AM68 °FSprinkles. Partly sunny.12 mph88%29.36 "Hg4 mi
5:00 AM68 °FSprinkles. Partly sunny.12 mph88%29.39 "Hg4 mi
4:30 AM68 °FSprinkles. Passing clouds.12 mph88%29.39 "Hg6 mi
4:00 AM66 °FSprinkles. Passing clouds.9 mph94%29.42 "Hg5 mi
3:30 AM66 °FSprinkles. Passing clouds.8 mph94%29.42 "Hg4 mi
3:00 AM66 °FSprinkles. Fog.9 mph94%29.42 "Hg3 mi
2:00 AM66 °FRain showers. Fog.9 mph88%29.47 "Hg3 mi
1:30 AM66 °FSprinkles. Passing clouds.13 mph94%29.47 "Hg4 mi
1:00 AM66 °FRain showers. Fog.14 mph94%29.50 "Hg3 mi
12:00 AM66 °FSprinkles. Partly cloudy.10 mph94%29.53 "Hg4 mi
11:30 PM
Tue, Jun 30
68 °FSprinkles. Fog.10 mph88%29.53 "Hg3 mi
10:30 PM68 °FSprinkles. Passing clouds.8 mph94%29.56 "Hg4 mi
10:00 PM68 °FSprinkles. Partly cloudy.7 mph88%29.56 "Hg6 mi
9:30 PM68 °FSprinkles. Passing clouds.10 mph94%29.59 "HgN/A
9:00 PM68 °FSprinkles. Passing clouds.10 mph94%29.59 "Hg5 mi
8:30 PM70 °FLight rain. Passing clouds.8 mph88%29.59 "Hg4 mi
8:00 PM70 °FLight rain. Passing clouds.8 mph88%29.59 "Hg4 mi
7:30 PM70 °FLight rain. Partly cloudy.12 mph88%29.59 "HgN/A
7:00 PM70 °FLight rain. Broken clouds.12 mph88%29.59 "HgN/A
6:30 PM70 °FLight rain. Broken clouds.8 mph88%29.59 "HgN/A
6:00 PM70 °FLight rain. Partly sunny.10 mph88%29.59 "HgN/A
5:30 PM70 °FLight rain. Partly sunny.10 mph88%29.59 "HgN/A
5:00 PM72 °FLight rain. Partly sunny.10 mph78%29.59 "HgN/A
4:30 PM72 °FLight rain. Partly sunny.10 mph78%29.59 "HgN/A
4:00 PM72 °FLight rain. Broken clouds.13 mph83%29.59 "HgN/A
3:30 PM72 °FPartly sunny.10 mph78%29.62 "HgN/A
3:00 PM73 °FPartly sunny.13 mph78%29.62 "HgN/A
2:30 PM73 °FBroken clouds.16 mph78%29.62 "HgN/A
2:00 PM75 °FBroken clouds.14 mph69%29.62 "HgN/A
1:30 PM73 °FBroken clouds.13 mph78%29.62 "HgN/A
1:00 PM73 °FPartly sunny.7 mph74%29.65 "HgN/A
12:30 PM73 °FPartly sunny.8 mph74%29.65 "HgN/A
12:00 PM75 °FBroken clouds.7 mph65%29.68 "HgN/A
11:30 AM75 °FBroken clouds.9 mph61%29.68 "HgN/A
11:00 AM75 °FPartly sunny.10 mph65%29.68 "HgN/A
10:30 AM73 °FPartly sunny.12 mph69%29.68 "HgN/A
10:00 AM73 °FPartly sunny.9 mph69%29.71 "HgN/A
9:30 AM73 °FPartly sunny.9 mph65%29.71 "HgN/A
9:00 AM73 °FPartly sunny.8 mph69%29.71 "HgN/A
Weather by CustomWeather, © 2015

See weather overviewHow to use our weather pages